Overview Statistics Trail Chart Weather Telemetry Raw packets
 

This is the latest recevied weather packets stored in our database for station/object KG7KID-3. If no packets are shown the sender has not sent any weather packets the latest 10 day(s).

<< 1 2 3 4 5 6 7 >>
Time Temp. Humidity Pressure Rain* Wind** Luminosity Snow
1788565205 34.44° C 27% 886.2 hPa 0 mm - - -
1788564309 34.44° C 27% 886.2 hPa 0 mm - - -
1788564005 34.44° C 26% 886.3 hPa 0 mm - - -
1788563105 35° C 24% 886.3 hPa 0 mm - - -
1788562806 35° C 24% 886.4 hPa 0 mm - - -
1788562206 34.44° C 24% 886.4 hPa 0 mm - - -
1788561608 35° C 23% 886.2 hPa 0 mm - - -
1788561305 35° C 23% 886.4 hPa 0 mm - - -
1788560407 34.44° C 27% 886.6 hPa 0 mm - - -
1788560106 34.44° C 27% 886.6 hPa 0 mm - - -
1788559805 33.89° C 29% 886.7 hPa 0 mm - - -
1788558605 34.44° C 30% 886.9 hPa 0 mm - - -
1788558006 33.89° C 30% 887 hPa 0 mm - - -
1788557405 34.44° C 29% 887.1 hPa 0 mm - - -
1788557105 34.44° C 27% 887.1 hPa 0 mm - - -
1788556205 34.44° C 30% 887.3 hPa 0 mm - - -
1788555606 34.44° C 30% 887.4 hPa 0 mm - - -
1788553072 35° C 29% 887.8 hPa 0 mm - - -
1788543969 29.44° C 50% 889.4 hPa 0 mm - - -
1788543670 29.44° C 51% 889.3 hPa 0 mm - - -
1788543370 29.44° C 51% 889.3 hPa 0 mm - - -
1788539778 - - 889.1 hPa 0 mm - - -
1788539470 - - 889.1 hPa 0 mm - - -
1788539170 - - 889 hPa 0 mm - - -
1788538605 - - 889 hPa 0 mm - - -

* Rain latest hour (hover to see other rain measurements)
** Current wind speed in m/s (hover to see current wind gust speed)